{"data":{"norad_id":64290,"epoch":"2026-09-19T21:32:54.983904Z","epoch_age_seconds":70211,"freshness":"FRESH","line1":"1 64290U 25122A   26262.89785861 -.00000022  00000+0  00000+0 0  9996","line2":"2 64290   0.0290  38.4185 0001523 316.5989 210.8711  1.00274011  4634","mean_motion":1.00274011,"eccentricity":0.0001523,"inclination_deg":0.029,"raan_deg":38.4185,"arg_perigee_deg":316.5989,"mean_anomaly_deg":210.8711,"bstar":0,"rev_number":463,"period_min":1436.0650238675,"perigee_km":35779.549350489,"apogee_km":35792.392537769,"semimajor_km":42164.107944129,"source":"CELESTRAK","updated_at":"2026-09-20T09:00:35.344657Z"}}